Location: City of Britt
(43.0975°N, 93.8032°W)
Time: 01:10:26
(UTC+00:00)

ACS3 Solar Sail - Pass Details

Date: 12 October 2024
Orbit: 961 x 1022 km, 97.5° (Epoch: 03 November)

Event Time Altitude Azimuth Distance (km) Brightness Sun altitude
Exits shadow 02:49:35 44° 240° (WSW) 1,389 2.7 -35.0°
Maximum altitude 02:50:28 47° 263° (W) 1,342 2.7 -35.2°
Drops below altitude 10° 02:56:38 10° 337° (NNW) 2,838 4.7 -36.2°
Sets 02:59:17 0° 343° (NNW) 3,794 5.4 -36.6°
